TimeEST,TemperatureF,Dew PointF,Humidity,Sea Level PressureIn,VisibilityMPH,Wind Direction,Wind SpeedMPH,Gust SpeedMPH,PrecipitationIn,Events,Conditions,WindDirDegrees,DateUTC
12:15 AM,12.2,8.6,85,30.14,8.0,Calm,Calm,-,N/A,,Overcast,0,2014-02-09 05:15:00
12:35 AM,12.2,8.6,85,30.13,6.0,Calm,Calm,-,N/A,Snow,Light Snow,0,2014-02-09 05:35:00
12:55 AM,12.2,8.6,85,30.13,7.0,Calm,Calm,-,N/A,,Overcast,0,2014-02-09 05:55:00
1:15 AM,12.2,8.6,85,30.12,7.0,Calm,Calm,-,N/A,Snow,Light Snow,0,2014-02-09 06:15:00
1:35 AM,12.2,8.6,85,30.11,5.0,Calm,Calm,-,N/A,,Overcast,0,2014-02-09 06:35:00
1:55 AM,12.2,8.6,85,30.11,6.0,Calm,Calm,-,N/A,Snow,Light Snow,0,2014-02-09 06:55:00
2:15 AM,12.2,8.6,85,30.10,8.0,Calm,Calm,-,N/A,,Overcast,0,2014-02-09 07:15:00
2:35 AM,12.2,10.4,92,30.09,9.0,Calm,Calm,-,N/A,,Overcast,0,2014-02-09 07:35:00
2:55 AM,12.2,10.4,92,30.09,8.0,Calm,Calm,-,N/A,,Overcast,0,2014-02-09 07:55:00
3:15 AM,12.2,10.4,92,30.09,8.0,Calm,Calm,-,N/A,,Overcast,0,2014-02-09 08:15:00
3:35 AM,12.2,10.4,92,30.08,7.0,Calm,Calm,-,N/A,,Overcast,0,2014-02-09 08:35:00
3:55 AM,12.2,10.4,92,30.09,1.0,Calm,Calm,-,N/A,Snow,Light Snow,0,2014-02-09 08:55:00
4:15 AM,12.2,10.4,92,30.09,1.2,Calm,Calm,-,N/A,Snow,Light Snow,0,2014-02-09 09:15:00
4:35 AM,12.2,10.4,92,30.09,1.2,Calm,Calm,-,N/A,Snow,Light Snow,0,2014-02-09 09:35:00
4:55 AM,12.2,10.4,92,30.08,1.0,Calm,Calm,-,N/A,Snow,Light Snow,0,2014-02-09 09:55:00
5:15 AM,12.2,10.4,92,30.08,1.2,Calm,Calm,-,N/A,Snow,Light Snow,0,2014-02-09 10:15:00
5:35 AM,12.2,10.4,92,30.07,1.5,Calm,Calm,-,N/A,Snow,Light Snow,0,2014-02-09 10:35:00
5:55 AM,14.0,10.4,86,30.07,1.5,Calm,Calm,-,N/A,Snow,Light Snow,0,2014-02-09 10:55:00
6:15 AM,12.2,10.4,92,30.06,1.2,Calm,Calm,-,N/A,Snow,Light Snow,0,2014-02-09 11:15:00
6:35 AM,12.2,10.4,92,30.05,3.0,Calm,Calm,-,N/A,Snow,Light Snow,0,2014-02-09 11:35:00
6:55 AM,12.2,10.4,92,30.05,3.0,Calm,Calm,-,N/A,Snow,Light Snow,0,2014-02-09 11:55:00
7:15 AM,12.2,10.4,92,30.06,1.5,Calm,Calm,-,N/A,Snow,Light Snow,0,2014-02-09 12:15:00
7:35 AM,12.2,10.4,92,30.06,0.8,WNW,3.5,-,N/A,Snow,Light Snow,300,2014-02-09 12:35:00
7:55 AM,12.2,10.4,92,30.05,0.5,WNW,4.6,-,N/A,Snow,Light Snow,300,2014-02-09 12:55:00
8:15 AM,12.2,10.4,92,30.04,0.8,Calm,Calm,-,N/A,Snow,Light Snow,0,2014-02-09 13:15:00
8:35 AM,12.2,10.4,92,30.04,0.8,Calm,Calm,-,N/A,Snow,Light Snow,0,2014-02-09 13:35:00
8:55 AM,14.0,10.4,86,30.05,1.2,West,4.6,-,N/A,Snow,Light Snow,270,2014-02-09 13:55:00
9:15 AM,14.0,10.4,86,30.05,1.2,West,6.9,-,N/A,Snow,Light Snow,280,2014-02-09 14:15:00
9:35 AM,14.0,10.4,86,30.05,1.8,West,6.9,-,N/A,Snow,Light Snow,280,2014-02-09 14:35:00
9:55 AM,14.0,10.4,86,30.05,3.0,WNW,8.1,-,N/A,Snow,Light Snow,290,2014-02-09 14:55:00
10:15 AM,14.0,10.4,86,30.05,5.0,West,6.9,-,N/A,,Overcast,280,2014-02-09 15:15:00
10:35 AM,14.0,10.4,86,30.04,6.0,WNW,6.9,-,N/A,,Haze,290,2014-02-09 15:35:00
10:55 AM,15.8,10.4,79,30.04,7.0,West,5.8,-,N/A,,Mostly Cloudy,280,2014-02-09 15:55:00
11:15 AM,15.8,10.4,79,30.04,7.0,WNW,6.9,-,N/A,,Mostly Cloudy,300,2014-02-09 16:15:00
11:35 AM,17.6,12.2,79,30.05,8.0,West,9.2,-,N/A,,Clear,280,2014-02-09 16:35:00
11:55 AM,17.6,12.2,79,30.05,9.0,West,8.1,-,N/A,,Clear,280,2014-02-09 16:55:00
12:15 PM,17.6,12.2,79,30.05,8.0,West,10.4,-,N/A,,Mostly Cloudy,280,2014-02-09 17:15:00
12:35 PM,19.4,12.2,74,30.04,9.0,West,10.4,-,N/A,,Scattered Clouds,280,2014-02-09 17:35:00
12:55 PM,19.4,12.2,74,30.04,10.0,West,12.7,-,N/A,,Partly Cloudy,280,2014-02-09 17:55:00
1:15 PM,19.4,12.2,74,30.04,10.0,West,15.0,-,N/A,,Mostly Cloudy,280,2014-02-09 18:15:00
1:35 PM,21.2,12.2,68,30.03,9.0,West,12.7,-,N/A,,Mostly Cloudy,280,2014-02-09 18:35:00
1:55 PM,19.4,12.2,74,30.03,10.0,WNW,11.5,18.4,N/A,,Partly Cloudy,290,2014-02-09 18:55:00
2:15 PM,21.2,12.2,68,30.03,10.0,WNW,10.4,19.6,N/A,,Partly Cloudy,290,2014-02-09 19:15:00
2:35 PM,19.4,12.2,74,30.03,10.0,WNW,15.0,-,N/A,,Partly Cloudy,300,2014-02-09 19:35:00
2:55 PM,21.2,12.2,68,30.03,10.0,West,11.5,17.3,N/A,,Mostly Cloudy,280,2014-02-09 19:55:00
3:15 PM,21.2,12.2,68,30.03,10.0,WNW,16.1,-,N/A,,Overcast,290,2014-02-09 20:15:00
3:35 PM,21.2,12.2,68,30.04,10.0,West,11.5,-,N/A,,Overcast,280,2014-02-09 20:35:00
3:55 PM,19.4,12.2,74,30.04,10.0,West,12.7,-,N/A,,Overcast,270,2014-02-09 20:55:00
4:15 PM,19.4,12.2,74,30.04,10.0,West,12.7,-,N/A,,Overcast,270,2014-02-09 21:15:00
4:35 PM,19.4,10.4,68,30.06,10.0,West,10.4,-,N/A,,Overcast,280,2014-02-09 21:35:00
4:55 PM,19.4,10.4,68,30.07,10.0,West,11.5,-,N/A,,Overcast,260,2014-02-09 21:55:00
5:15 PM,19.4,12.2,74,30.09,10.0,WSW,10.4,-,N/A,,Overcast,250,2014-02-09 22:15:00
5:35 PM,19.4,12.2,74,30.11,10.0,West,15.0,-,N/A,,Overcast,260,2014-02-09 22:35:00
5:55 PM,19.4,12.2,74,30.11,10.0,West,15.0,-,N/A,,Overcast,260,2014-02-09 22:55:00
6:15 PM,19.4,12.2,74,30.12,9.0,West,15.0,-,N/A,,Overcast,260,2014-02-09 23:15:00
6:35 PM,17.6,12.2,79,30.13,8.0,West,16.1,-,N/A,Snow,Light Snow,270,2014-02-09 23:35:00
6:55 PM,17.6,10.4,73,30.14,10.0,West,12.7,-,N/A,,Overcast,270,2014-02-09 23:55:00
7:15 PM,15.8,8.6,73,30.14,10.0,West,10.4,-,N/A,,Overcast,260,2014-02-10 00:15:00
7:35 PM,14.0,8.6,79,30.15,10.0,West,10.4,-,N/A,,Overcast,260,2014-02-10 00:35:00
7:55 PM,14.0,8.6,79,30.15,10.0,West,11.5,-,N/A,,Overcast,260,2014-02-10 00:55:00
8:15 PM,15.8,8.6,73,30.15,10.0,West,10.4,-,N/A,,Overcast,260,2014-02-10 01:15:00
8:35 PM,14.0,8.6,79,30.16,10.0,West,9.2,-,N/A,,Overcast,260,2014-02-10 01:35:00
8:55 PM,12.2,6.8,79,30.16,10.0,West,10.4,-,N/A,,Overcast,260,2014-02-10 01:55:00
9:15 PM,12.2,5.0,73,30.17,10.0,West,10.4,-,N/A,,Overcast,260,2014-02-10 02:15:00
9:35 PM,12.2,5.0,73,30.17,10.0,West,6.9,-,N/A,,Overcast,270,2014-02-10 02:35:00
9:55 PM,10.4,5.0,79,30.17,10.0,West,9.2,-,N/A,,Overcast,270,2014-02-10 02:55:00
10:15 PM,10.4,5.0,79,30.17,10.0,West,9.2,-,N/A,,Scattered Clouds,270,2014-02-10 03:15:00
10:35 PM,8.6,5.0,85,30.18,10.0,West,9.2,-,N/A,,Clear,280,2014-02-10 03:35:00
10:55 PM,6.8,1.4,79,30.18,10.0,West,9.2,-,N/A,,Clear,260,2014-02-10 03:55:00
11:15 PM,6.8,3.2,85,30.18,10.0,West,9.2,-,N/A,,Clear,260,2014-02-10 04:15:00
11:35 PM,6.8,3.2,85,30.18,10.0,West,8.1,-,N/A,,Clear,260,2014-02-10 04:35:00
11:55 PM,5.0,1.4,85,30.18,10.0,West,9.2,-,N/A,,Mostly Cloudy,260,2014-02-10 04:55:00